• In Netherlands
  • List of Countries
  • For 7 days
  • Water Temperature
  • Satellite Maps
  • Weather Map
  • Weather Widgets
  • user-avatar
    Login

    Hourly Weather Belmopan

    Today, 22 January, Sunday

    Time Temperature Precipitation Wind Pressure Humidity
    00:00 +22°C° 0 mm 1 mps 748 mmHg 80%
    01:00 +22°C° 0 mm 1 mps 748 mmHg 83%
    02:00 +21°C° 0 mm 1 mps 748 mmHg 85%
    03:00 +21°C° 0 mm 1 mps 748 mmHg 88%
    04:00 +20°C° 0 mm 1 mps 748 mmHg 88%
    05:00 +20°C° 0 mm 1 mps 748 mmHg 88%
    06:00 +20°C° 0 mm 1 mps 748 mmHg 89%
    07:00 +24°C° 0 mm 1 mps 748 mmHg 77%
    08:00 +27°C° 0 mm 1 mps 748 mmHg 65%
    09:00 +28°C° 0 mm 0 mps 749 mmHg 52%
    10:00 +33°C° 0 mm 1 mps 749 mmHg 45%
    11:00 +35°C° 0 mm 1 mps 749 mmHg 38%
    12:00 +39°C° 0 mm 1 mps 749 mmHg 30%
    13:00 +39°C° 0 mm 1 mps 748 mmHg 29%
    14:00 +39°C° 0 mm 1 mps 748 mmHg 28%
    15:00 +39°C° 0 mm 1 mps 747 mmHg 27%
    16:00 +34°C° 0 mm 1 mps 748 mmHg 42%
    17:00 +30°C° 0 mm 1 mps 748 mmHg 56%
    18:00 +26°C° 0 mm 1 mps 748 mmHg 70%
    19:00 +26°C° 0 mm 1 mps 749 mmHg 68%
    20:00 +26°C° 0 mm 1 mps 749 mmHg 65%
    21:00 +27°C° 0 mm 1 mps 750 mmHg 63%
    22:00 +26°C° 0 mm 1 mps 751 mmHg 66%
    23:00 +25°C° 0 mm 1 mps 751 mmHg 70%

    Tomorrow, 23 January, Monday

    Time Temperature Precipitation Wind Pressure Humidity
    00:00 +24°C° 0 mm 1 mps 752 mmHg 73%
    01:00 +24°C° 0 mm 2 mps 752 mmHg 78%
    02:00 +24°C° 0 mm 2 mps 752 mmHg 82%
    03:00 +24°C° 0 mm 2 mps 753 mmHg 87%
    04:00 +23°C° 0 mm 2 mps 753 mmHg 89%
    05:00 +21°C° 0 mm 2 mps 754 mmHg 92%
    06:00 +21°C° 0 mm 2 mps 754 mmHg 95%
    07:00 +23°C° 0 mm 2 mps 755 mmHg 82%
    08:00 +24°C° 0 mm 2 mps 755 mmHg 70%
    09:00 +26°C° 0 mm 2 mps 756 mmHg 58%
    10:00 +27°C° 0 mm 2 mps 756 mmHg 51%
    11:00 +29°C° 0 mm 2 mps 755 mmHg 44%
    12:00 +30°C° 0 mm 2 mps 755 mmHg 37%
    13:00 +31°C° 0 mm 2 mps 754 mmHg 35%
    14:00 +32°C° 0 mm 2 mps 753 mmHg 33%
    15:00 +32°C° 0 mm 2 mps 752 mmHg 31%
    16:00 +29°C° 0 mm 2 mps 753 mmHg 41%
    17:00 +26°C° 0 mm 1 mps 753 mmHg 52%
    18:00 +24°C° 0 mm 1 mps 753 mmHg 62%
    19:00 +23°C° 0 mm 1 mps 753 mmHg 62%
    20:00 +23°C° 0 mm 1 mps 754 mmHg 61%
    21:00 +22°C° 0 mm 1 mps 754 mmHg 61%
    22:00 +21°C° 0 mm 1 mps 754 mmHg 66%
    23:00 +20°C° 0 mm 1 mps 754 mmHg 72%

    Day after tomorrow, 24 January, Tuesday

    Time Temperature Precipitation Wind Pressure Humidity
    00:00 +19°C° 0 mm 1 mps 754 mmHg 77%
    01:00 +18°C° 0 mm 1 mps 754 mmHg 82%
    02:00 +16°C° 0 mm 1 mps 754 mmHg 87%
    03:00 +15°C° 0 mm 1 mps 754 mmHg 92%
    04:00 +14°C° 0 mm 1 mps 754 mmHg 93%
    05:00 +14°C° 0 mm 1 mps 754 mmHg 94%
    06:00 +12°C° 0 mm 0 mps 754 mmHg 95%
    07:00 +16°C° 0 mm 0 mps 755 mmHg 82%
    08:00 +19°C° 0 mm 0 mps 755 mmHg 70%
    09:00 +23°C° 0 mm 0 mps 756 mmHg 57%
    10:00 +25°C° 0 mm 0 mps 755 mmHg 50%
    11:00 +27°C° 0 mm 0 mps 755 mmHg 42%
    12:00 +30°C° 0 mm 0 mps 754 mmHg 35%
    13:00 +32°C° 0 mm 1 mps 753 mmHg 35%
    14:00 +32°C° 0 mm 1 mps 752 mmHg 35%
    15:00 +32°C° 0 mm 1 mps 751 mmHg 36%
    16:00 +29°C° 0 mm 1 mps 751 mmHg 47%
    17:00 +27°C° 0 mm 1 mps 752 mmHg 58%
    18:00 +24°C° 0 mm 1 mps 752 mmHg 69%
    19:00 +23°C° 0 mm 1 mps 752 mmHg 76%
    20:00 +22°C° 0 mm 1 mps 753 mmHg 84%
    21:00 +20°C° 0 mm 1 mps 753 mmHg 91%
    22:00 +20°C° 0 mm 1 mps 753 mmHg 92%
    23:00 +20°C° 0 mm 1 mps 753 mmHg 94%

    25 January, Wednesday

    Time Temperature Precipitation Wind Pressure Humidity
    00:00 +20°C° 0 mm 1 mps 753 mmHg 95%
    01:00 +19°C° 0 mm 1 mps 752 mmHg 95%
    02:00 +19°C° 0 mm 1 mps 752 mmHg 95%
    03:00 +19°C° 0 mm 1 mps 752 mmHg 96%
    04:00 +19°C° 0 mm 1 mps 752 mmHg 97%
    05:00 +19°C° 0 mm 1 mps 752 mmHg 97%
    06:00 +19°C° 0 mm 1 mps 752 mmHg 98%
    07:00 +22°C° 0 mm 1 mps 753 mmHg 89%
    08:00 +25°C° 0 mm 2 mps 753 mmHg 80%
    09:00 +27°C° 0 mm 2 mps 754 mmHg 71%
    10:00 +29°C° 0 mm 2 mps 754 mmHg 64%
    11:00 +31°C° 0 mm 2 mps 753 mmHg 57%
    12:00 +32°C° 0 mm 2 mps 753 mmHg 51%
    13:00 +32°C° 0 mm 2 mps 752 mmHg 51%
    14:00 +32°C° 0 mm 2 mps 751 mmHg 52%
    15:00 +32°C° 0 mm 2 mps 751 mmHg 52%
    16:00 +30°C° 0 mm 2 mps 751 mmHg 61%
    17:00 +28°C° 0 mm 2 mps 751 mmHg 70%
    18:00 +26°C° 0 mm 2 mps 752 mmHg 80%
    19:00 +25°C° 0 mm 1 mps 752 mmHg 86%
    20:00 +24°C° 0 mm 1 mps 753 mmHg 92%
    21:00 +22°C° 0 mm 1 mps 753 mmHg 98%
    22:00 +22°C° 0 mm 1 mps 753 mmHg 99%
    23:00 +21°C° 0 mm 1 mps 753 mmHg 99%

    26 January, Thursday

    Time Temperature Precipitation Wind Pressure Humidity
    00:00 +21°C° 0 mm 1 mps 753 mmHg 99%
    01:00 +20°C° 0 mm 1 mps 753 mmHg 99%
    02:00 +20°C° 0 mm 1 mps 753 mmHg 99%
    03:00 +19°C° 0 mm 1 mps 753 mmHg 99%
    04:00 +17°C° 0 mm 0 mps 753 mmHg 99%
    05:00 +17°C° 0 mm 0 mps 754 mmHg 99%
    06:00 +16°C° 0 mm 0 mps 754 mmHg 99%
    07:00 +19°C° 0 mm 0 mps 755 mmHg 91%
    08:00 +22°C° 0 mm 0 mps 756 mmHg 82%
    09:00 +27°C° 0 mm 1 mps 756 mmHg 74%
    10:00 +29°C° 0 mm 1 mps 756 mmHg 63%
    11:00 +31°C° 0 mm 1 mps 756 mmHg 53%
    12:00 +33°C° 0 mm 1 mps 755 mmHg 43%
    13:00 +33°C° 0 mm 1 mps 755 mmHg 43%
    14:00 +34°C° 0 mm 2 mps 754 mmHg 43%
    15:00 +34°C° 0 mm 2 mps 754 mmHg 43%
    16:00 +30°C° 0 mm 2 mps 754 mmHg 53%
    17:00 +28°C° 0 mm 1 mps 754 mmHg 64%
    18:00 +25°C° 0 mm 1 mps 754 mmHg 75%
    19:00 +24°C° 0 mm 1 mps 755 mmHg 81%
    20:00 +22°C° 0 mm 1 mps 755 mmHg 88%
    21:00 +20°C° 0 mm 1 mps 756 mmHg 94%
    22:00 +20°C° 0 mm 1 mps 756 mmHg 95%
    23:00 +20°C° 0 mm 1 mps 756 mmHg 96%

    27 January, Friday

    Time Temperature Precipitation Wind Pressure Humidity
    00:00 +20°C° 0 mm 1 mps 756 mmHg 97%
    01:00 +19°C° 0 mm 1 mps 755 mmHg 98%
    02:00 +17°C° 0 mm 0 mps 755 mmHg 98%
    03:00 +16°C° 0 mm 0 mps 755 mmHg 99%
    04:00 +16°C° 0 mm 0 mps 755 mmHg 99%
    05:00 +19°C° 0 mm 1 mps 755 mmHg 99%
    06:00 +19°C° 0 mm 1 mps 756 mmHg 98%
    07:00 +22°C° 0 mm 1 mps 756 mmHg 88%
    08:00 +22°C° 0 mm 0 mps 757 mmHg 77%
    09:00 +25°C° 0 mm 0 mps 757 mmHg 66%
    10:00 +27°C° 0 mm 0 mps 757 mmHg 58%
    11:00 +31°C° 0 mm 1 mps 756 mmHg 49%
    12:00 +33°C° 0 mm 1 mps 756 mmHg 40%
    13:00 +33°C° 0 mm 1 mps 755 mmHg 41%
    14:00 +32°C° 0 mm 1 mps 754 mmHg 42%
    15:00 +32°C° 0 mm 2 mps 754 mmHg 43%
    16:00 +30°C° 0 mm 2 mps 754 mmHg 54%
    17:00 +28°C° 0 mm 2 mps 754 mmHg 65%
    18:00 +26°C° 0 mm 1 mps 754 mmHg 76%
    19:00 +25°C° 0 mm 1 mps 755 mmHg 82%
    20:00 +24°C° 0 mm 1 mps 755 mmHg 88%
    21:00 +23°C° 0 mm 1 mps 755 mmHg 95%
    22:00 +23°C° 0 mm 1 mps 755 mmHg 96%
    23:00 +22°C° 0 mm 1 mps 755 mmHg 97%
    Show more